Waarnemingen

Advertentie
Mijn weer
Kvikkjokk Arrenjarka A, Zweden (2119): temperatuur & dauwpunt: 12.01.2020 14:00:00 - 18.01.2020 14:00:00 (CET)Kvikkjokk Arrenjarka A, Zweden (2119): windsnelheid & windstoten: 12.01.2020 14:00:00 - 18.01.2020 14:00:00 (CET)Kvikkjokk Arrenjarka A, Zweden (2119): windrichting: 12.01.2020 14:00:00 - 18.01.2020 14:00:00 (CET)Kvikkjokk Arrenjarka A, Zweden (2119): luchtdruk: 12.01.2020 14:00:00 - 18.01.2020 14:00:00 (CET)Kvikkjokk Arrenjarka A, Zweden (2119): zicht: 12.01.2020 14:00:00 - 18.01.2020 14:00:00 (CET)Kvikkjokk Arrenjarka A, Zweden (2119): neerslag: 12.01.2020 14:00:00 - 18.01.2020 14:00:00 (CET)
Datum & Tijd tt [°C] td [°C] ff [km/u] ff [kn] fx [km/u] fx [kn] dd ppp [hPa] vv [km] rr [mm]
18.01.2020 14:00:00 -7,8 -9,1 0 0 - - N 1006,5 2,8 0,1
18.01.2020 13:00:00 -7,6 -8,8 0 0 2 1 N 1006,7 3,3 0,1
18.01.2020 12:00:00 -7,7 -8,9 0 0 3 2 N 1007,0 5 0,1
18.01.2020 11:00:00 -7,8 -9,0 0 0 4 2 N 1007,3 2,5 0,1
18.01.2020 10:00:00 -7,9 -9,1 2 1 3 2 WZW 1007,7 2,5 0,0
18.01.2020 09:00:00 -8,1 -9,4 2 1 3 2 NW 1007,9 7 0,0
18.01.2020 08:00:00 -7,8 -9,0 0 0 5 3 N 1007,9 1,5 0,1
18.01.2020 07:00:00 -7,6 -8,5 0 0 5 3 N 1008,1 3,0 0,1
18.01.2020 06:00:00 -7,7 -8,8 2 1 4 2 OZO 1008,3 3,2 0,1
18.01.2020 05:00:00 -8,1 -9,3 0 0 3 2 N 1009,0 3,5 0,0
18.01.2020 04:00:00 -8,0 -9,2 0 0 3 2 N 1009,4 3,1 0,0
18.01.2020 03:00:00 -7,9 -9,1 2 1 3 2 NNW 1009,9 2,5 0,0
18.01.2020 02:00:00 -7,7 -8,9 0 0 4 2 N 1010,4 16 0,0
18.01.2020 01:00:00 -7,4 -8,6 0 0 7 4 N 1011,2 20 0,0
18.01.2020 00:00:00 -7,0 -8,2 3 2 10 5 NO 1011,6 11 0,3
17.01.2020 23:00:00 -6,9 -8,0 4 2 11 6 ONO 1011,7 2,1 0,6
17.01.2020 22:00:00 -6,7 -7,8 4 2 10 5 ONO 1012,2 2,3 0,5
17.01.2020 21:00:00 -6,7 -7,8 5 3 11 6 ONO 1012,2 9 0,2
17.01.2020 20:00:00 -6,4 -7,3 3 1 8 4 O 1012,7 4,7 0,3
17.01.2020 19:00:00 -6,3 -7,2 2 1 8 4 ZO 1012,7 5 0,0
17.01.2020 18:00:00 -6,3 -7,2 3 1 - - O 1012,9 2,8 0,1
17.01.2020 17:00:00 -6,5 -7,3 0 0 5 3 N 1012,9 1,6 0,4
17.01.2020 16:00:00 -7,3 -8,2 0 0 3 2 N 1012,5 1,6 0,2
17.01.2020 15:00:00 -7,9 -8,8 0 0 4 2 N 1012,6 2,4 0,0
17.01.2020 14:00:00 -7,9 -8,8 0 0 4 2 N 1012,6 2,5 0,0
17.01.2020 13:00:00 -8,0 -8,9 3 2 5 3 ZW 1012,6 2,7 0,0
17.01.2020 12:00:00 -8,3 -9,2 2 1 10 5 ZW 1012,1 2,2 0,1
17.01.2020 11:00:00 -9,5 -10,8 3 1 10 5 WNW 1011,8 6 -
17.01.2020 10:00:00 -11,0 -12,3 6 3 10 5 NW 1010,7 50 0,0
17.01.2020 09:00:00 -14,8 -16,5 3 2 12 7 NNW 1009,5 50 0,0
17.01.2020 08:00:00 -13,1 -14,8 6 3 18 10 ONO 1007,6 50 0,0
17.01.2020 07:00:00 -13,4 -15,0 3 2 7 4 N 1006,8 50 0,0
17.01.2020 06:00:00 -14,5 -16,2 2 1 7 4 WNW 1005,9 50 0,0
17.01.2020 05:00:00 -15,9 -17,4 5 3 7 4 NW 1005,3 50 0,0
17.01.2020 04:00:00 -18,5 -20,8 4 2 8 5 WNW 1004,6 50 0,0
17.01.2020 03:00:00 -17,8 -20,1 5 3 8 4 NNW 1004,2 50 0,0
17.01.2020 02:00:00 -16,0 -18,2 4 2 10 5 NW 1003,5 50 0,0
17.01.2020 01:00:00 -13,9 -15,5 6 3 12 7 NW 1002,7 50 0,0
17.01.2020 00:00:00 -16,1 -18,0 4 2 9 5 NW 1002,5 50 0,0
16.01.2020 23:00:00 -15,9 -18,1 5 3 9 5 NW 1002,1 50 0,0
16.01.2020 22:00:00 -13,2 -15,0 4 2 8 4 NW 1001,4 50 0,0
16.01.2020 21:00:00 -13,6 -15,6 0 0 7 4 N 1001,3 50 0,0
16.01.2020 20:00:00 -11,8 -13,5 3 2 5 3 Z 1000,8 50 0,0
16.01.2020 19:00:00 -10,5 -12,2 2 1 5 3 ZW 1000,6 27 0,1
16.01.2020 18:00:00 -9,5 -10,8 2 1 4 2 NW 1000,4 6 0,1
16.01.2020 17:00:00 -9,4 -10,7 0 0 5 3 N 1000,5 4,6 0,1
16.01.2020 16:00:00 -9,3 -10,6 0 0 5 3 N 1000,4 1,9 0,2
16.01.2020 15:00:00 -9,1 -10,3 0 0 3 2 N 1000,6 1,7 0,4
16.01.2020 14:00:00 -9,2 -10,0 0 0 3 2 N 1000,7 1,3 0,0
16.01.2020 13:00:00 -9,3 -10,2 0 0 4 2 N 1000,6 3,8 -
16.01.2020 12:00:00 -9,5 -10,4 0 0 5 3 N 1000,7 1,2 0,0
16.01.2020 11:00:00 -9,9 -10,8 0 0 5 3 N 1000,5 3,5 0,0
16.01.2020 10:00:00 -10,0 -10,9 3 2 6 4 ZZW 1000,1 5 0,0
16.01.2020 09:00:00 -10,4 -11,4 0 0 4 2 N 999,8 3,2 0,0
16.01.2020 08:00:00 -10,6 -11,9 0 0 4 2 N 999,1 6 0,0
16.01.2020 07:00:00 -10,9 -12,2 3 2 5 3 NW 998,6 43 0,0
16.01.2020 06:00:00 -11,2 -12,2 0 0 4 2 N 997,8 2,8 0,0
16.01.2020 05:00:00 -11,6 -13,2 0 0 7 4 N 997,3 32 0,0
16.01.2020 04:00:00 -12,1 -13,5 5 3 8 4 NW 996,8 50 0,0
16.01.2020 03:00:00 -12,7 -14,4 3 2 6 4 ZZW 996,5 50 0,0
16.01.2020 02:00:00 -12,5 -14,4 3 2 5 3 Z 995,7 50 0,0
16.01.2020 01:00:00 -12,3 -13,9 3 1 6 3 ZZW 994,7 50 0,0
16.01.2020 00:00:00 -13,5 -15,2 0 0 5 3 N 994,0 50 0,0
15.01.2020 23:00:00 -14,3 -16,0 5 3 6 4 NNW 992,9 50 0,0
15.01.2020 22:00:00 -15,0 -17,0 2 1 5 3 N 992,0 50 0,0
15.01.2020 21:00:00 -15,6 -17,5 2 1 4 2 NW 990,5 50 0,0
15.01.2020 20:00:00 -15,9 -17,8 2 1 3 2 ZZO 989,4 50 0,0
15.01.2020 19:00:00 -16,5 -18,4 3 2 8 4 ZO 988,5 50 0,0
15.01.2020 18:00:00 -17,4 -19,6 0 0 6 3 N 987,7 50 0,0
15.01.2020 17:00:00 -18,4 -20,4 5 3 7 4 NW 986,9 50 0,0
15.01.2020 16:00:00 -18,8 -21,0 3 2 5 3 NW 985,7 50 0,0
15.01.2020 15:00:00 -19,1 -21,4 0 0 6 4 N 985,3 50 0,0
15.01.2020 14:00:00 -19,8 -22,2 3 2 9 5 WNW 984,9 50 0,0
15.01.2020 13:00:00 -19,8 -22,4 2 1 5 3 Z 984,8 50 0,0
15.01.2020 12:00:00 -19,2 -21,5 0 0 6 4 N 984,4 50 0,0
15.01.2020 11:00:00 -19,4 -22,0 4 2 8 4 N 984,5 50 0,0
15.01.2020 10:00:00 -19,0 -21,4 4 2 5 3 WNW 984,3 43 0,0
15.01.2020 09:00:00 -17,8 -20,0 0 0 9 5 N 983,8 50 0,0
15.01.2020 08:00:00 -17,7 -20,0 6 3 10 5 NW 983,8 50 0,0
15.01.2020 07:00:00 -16,8 -19,0 5 3 8 4 NW 983,2 50 0,0
15.01.2020 06:00:00 -15,0 -16,7 5 3 9 5 NW 983,0 50 0,0
15.01.2020 05:00:00 -14,6 -16,4 2 1 8 5 NW 983,1 50 0,0
15.01.2020 04:00:00 -14,5 -16,5 5 3 9 5 WNW 982,6 50 0,0
15.01.2020 03:00:00 -12,5 -14,4 2 1 7 4 NNW 982,0 50 0,0
15.01.2020 02:00:00 -10,7 -12,0 5 3 6 4 WZW 981,9 50 0,0
15.01.2020 01:00:00 -10,7 -12,3 0 0 7 4 N 981,7 50 0,0
15.01.2020 00:00:00 -9,3 -10,6 4 2 5 3 WNW 981,7 50 0,0
14.01.2020 23:00:00 -8,9 -10,4 3 2 8 5 NNW 981,5 47 0,0
14.01.2020 22:00:00 -6,8 -7,9 3 2 8 5 N 981,3 2,1 0,0
14.01.2020 21:00:00 -6,4 -7,5 0 0 7 4 N 981,2 8 0,0
14.01.2020 20:00:00 -5,9 -6,8 3 1 8 4 ZW 981,6 6 0,1
14.01.2020 19:00:00 -5,9 -6,8 2 1 5 3 NW 981,7 2,4 0,5
14.01.2020 18:00:00 -5,7 -6,6 3 2 13 7 NNW 982,2 2,2 0,5
14.01.2020 17:00:00 -5,7 -6,6 6 3 17 9 O 982,8 4,7 0,6
14.01.2020 16:00:00 -5,9 -6,8 7 4 18 10 O 983,7 0,9 0,7
14.01.2020 15:00:00 -6,3 -7,2 7 4 16 9 ONO 985,0 30 0,3
14.01.2020 14:00:00 -6,5 -7,6 6 3 17 9 O 986,0 4,8 0,3
14.01.2020 13:00:00 -6,4 -7,5 7 4 18 10 ONO 987,1 7 0,1
14.01.2020 12:00:00 -6,6 -7,5 6 4 14 8 O 988,4 50 0,0
14.01.2020 11:00:00 -7,9 -9,1 6 3 16 8 NNO 989,5 50 0,0
14.01.2020 10:00:00 -9,0 -10,2 3 2 9 5 NNW 990,6 50 0,0
14.01.2020 09:00:00 -11,5 -13,1 3 1 10 5 NW 991,6 50 0,0
14.01.2020 08:00:00 -11,2 -12,5 4 2 8 4 NNW 992,0 50 0,0
14.01.2020 07:00:00 -13,0 -14,8 3 1 8 5 NO 992,6 50 0,0
14.01.2020 06:00:00 -11,2 -12,2 5 3 12 7 NNW 992,6 50 0,0
14.01.2020 05:00:00 -12,3 -14,0 4 2 10 5 N 992,5 50 0,0
14.01.2020 04:00:00 -11,0 -12,5 5 3 12 6 NW 993,2 50 0,0
14.01.2020 03:00:00 -10,1 -11,6 8 5 12 6 NNW 993,2 50 0,0
14.01.2020 02:00:00 -11,3 -12,9 6 4 10 5 NNW 993,1 50 0,0
14.01.2020 01:00:00 -10,8 -12,4 4 2 11 6 NNW 992,8 50 0,0
14.01.2020 00:00:00 -9,2 -10,5 3 2 12 7 Z 992,1 50 0,0
13.01.2020 23:00:00 -7,0 -8,1 4 2 18 10 Z 991,8 50 0,0
13.01.2020 22:00:00 -3,8 -4,9 9 5 20 11 WZW 991,3 50 0,0
13.01.2020 21:00:00 -7,4 -7,5 9 5 16 8 WZW 990,9 50 0,0
13.01.2020 20:00:00 -13,8 -15,6 6 4 12 6 NW 991,0 50 0,0
13.01.2020 19:00:00 -12,0 -13,6 5 3 11 6 NW 990,0 50 0,0
13.01.2020 18:00:00 -8,9 -10,4 5 3 15 8 ZW 989,0 50 0,0
13.01.2020 17:00:00 -6,1 -7,3 2 1 8 5 NNW 987,7 26 0,0
13.01.2020 16:00:00 -5,0 -5,7 3 2 6 3 NW 987,3 4,9 0,3
13.01.2020 15:00:00 -5,4 -6,2 4 2 6 4 NW 987,6 1,2 1,4
13.01.2020 14:00:00 -5,8 -6,5 5 3 16 8 WNW 988,5 3,0 0,4
13.01.2020 13:00:00 -9,6 -10,8 5 3 12 7 NW 989,1 50 0,0
13.01.2020 12:00:00 -11,2 -12,7 4 2 10 5 NNW 989,5 50 0,0
13.01.2020 11:00:00 -11,5 -12,9 4 2 11 6 NW 989,5 50 0,0
13.01.2020 10:00:00 -11,5 -12,9 9 5 12 6 NW 989,6 50 0,0
13.01.2020 09:00:00 -11,9 -13,6 2 1 12 6 ONO 989,6 50 0,0
13.01.2020 08:00:00 -12,4 -13,7 4 2 10 5 NNW 989,1 50 0,0
13.01.2020 07:00:00 -15,1 -16,9 3 2 9 5 NO 989,5 50 0,0
13.01.2020 06:00:00 -15,7 -17,4 5 3 10 5 NW 989,5 50 0,0
13.01.2020 05:00:00 -14,8 -16,5 2 1 10 5 WNW 989,8 50 0,0
13.01.2020 04:00:00 -13,9 -15,7 7 4 11 6 NNW 989,7 50 0,0
13.01.2020 03:00:00 -13,0 -14,4 6 3 12 7 N 989,5 50 0,0
13.01.2020 02:00:00 -13,7 -15,3 3 1 10 5 WNW 989,6 50 0,0
13.01.2020 01:00:00 -15,1 -16,9 5 3 10 6 NW 989,8 50 0,0
13.01.2020 00:00:00 -14,1 -15,8 3 1 9 5 N 989,3 50 0,0
12.01.2020 23:00:00 -14,2 -15,9 4 2 13 7 NNO 989,5 50 0,0
12.01.2020 22:00:00 -14,6 -16,4 3 2 12 6 ONO 989,5 50 0,0
12.01.2020 21:00:00 -15,0 -16,7 6 4 11 6 N 989,3 50 0,0
12.01.2020 20:00:00 -14,5 -16,2 0 0 11 6 N 989,1 47 0,0
12.01.2020 19:00:00 -13,5 -15,2 5 3 12 7 NNW 988,3 40 0,0
12.01.2020 18:00:00 -12,5 -13,7 8 5 13 7 NW 988,1 35 0,0
12.01.2020 17:00:00 -11,6 -12,8 8 4 10 5 NW 987,9 29 0,0
12.01.2020 16:00:00 -9,1 -10,4 3 2 8 4 NW 987,1 29 0,0
12.01.2020 15:00:00 -4,4 -7,0 3 1 9 5 WZW 986,1 21 0,0
12.01.2020 14:00:00 -0,9 -6,1 6 3 17 9 WZW 985,9 28 0,0

tt = temperatuur
td = dauwpunt
ff = windsnelheid
fx = windstoten
dd = windrichting
ppp = luchtdruk
vv = zicht
rr = neerslag

Weerstations in de omgeving